Temperature
11 10 9 9 9 9 9 9 8 8 8 7 7 7 7 6 6 6 6 6 6 6 6 6 6 6 6 7 8 9 10 10 11 11 11 11 11 11 11 12 12 12 12
11 10 9 9 9 9 9 9 9 8 8 7 7 7 7 6 6 6 6 6 6 5 5 5 5 5 5 6 7 8 9 10 10 10 10 10 10 10 10 11 11 11 11
11 10 9 9 9 9 9 9 9 8 8 8 7 7 6 6 6 6 6 5 5 5 5 5 5 5 5 5 6 7 9 9 9 9 10 9 9 8 8 9 9 10 10
10 9 8 9 9 9 9 9 8 8 8 8 7 7 7 6 6 6 6 5 5 5 5 5 5 5 5 5 6 7 8 9 9 9 9 9 8 6 6 7 7 8 9
10 9 9 9 9 9 9 9 8 8 8 8 8 7 7 7 6 6 6 5 5 5 5 5 5 5 5 5 5 6 8 8 9 9 8 8 7 6 5 5 6 6 7
10 9 9 9 9 9 9 9 8 8 8 8 8 8 7 7 7 6 6 6 5 5 5 5 5 5 5 5 6 6 7 8 8 8 8 8 7 6 5 5 5 5 6
10 9 8 9 8 9 9 9 8 8 8 8 8 8 7 7 7 6 6 6 5 5 5 5 5 5 5 6 6 6 7 7 7 7 7 7 7 6 5 5 5 5 5
10 9 8 8 8 8 8 8 8 8 8 8 8 8 7 7 7 6 6 6 5 5 5 5 5 5 6 6 6 6 6 6 6 6 6 6 6 5 5 5 5 5 4
9 9 9 8 8 8 8 8 8 8 8 8 8 8 7 7 6 6 6 6 5 5 5 5 5 5 5 5 5 5 5 5 5 5 5 5 5 5 4 4 4 4 4
9 9 9 8 7 8 8 8 8 8 8 8 8 7 7 7 6 6 5 5 5 5 5 5 5 5 5 5 5 5 5 4 4 4 4 4 4 4 3 3 3 3 3
10 9 9 8 8 8 8 8 8 8 8 7 7 7 7 6 6 6 5 5 5 5 5 5 5 4 4 4 4 4 4 4 3 3 3 3 3 3 2 2 2 2 2
11 10 9 8 8 8 8 8 7 7 7 7 7 7 6 6 6 5 5 5 5 5 4 4 4 4 4 4 3 3 3 3 3 2 2 2 2 2 1 1 1 1 1
12 11 10 9 8 8 8 8 7 7 7 7 7 7 6 6 6 5 5 5 5 4 4 4 4 4 3 3 3 2 2 2 2 1 1 1 1 1 0 -1 -1 -1 -1
12 12 11 10 9 8 8 8 7 7 7 7 7 6 6 6 5 5 5 5 4 4 4 4 3 3 3 3 2 2 1 1 0 0 0 0 -0 -1 -1 -2 -2 -2 -2
13 12 11 10 9 9 8 8 7 7 7 7 6 6 6 6 5 5 5 5 4 4 4 3 3 3 2 2 2 1 1 0 -0 -1 -1 -1 -1 -2 -2 -3 -3 -3 -3
13 13 12 11 10 9 8 8 8 7 7 7 6 6 6 5 5 5 5 4 4 4 3 3 2 2 2 1 1 1 0 -0 -1 -1 -2 -2 -2 -2 -3 -4 -4 -4 -4
14 13 12 11 10 9 8 8 7 7 7 7 6 6 6 5 5 5 5 4 4 3 3 2 2 2 1 1 1 0 -0 -1 -1 -2 -2 -3 -3 -3 -4 -4 -5 -5 -5
14 13 13 12 11 10 9 8 7 7 7 7 6 6 6 5 5 5 4 4 4 3 3 2 2 1 0 0 -0 -0 -1 -1 -1 -2 -3 -3 -4 -4 -5 -5 -5 -6 -6
14 14 13 12 11 10 9 8 8 7 7 7 6 6 6 5 5 5 4 4 3 3 2 2 1 1 -0 -1 -1 -1 -1 -1 -1 -2 -3 -3 -4 -4 -5 -5 -6 -6 -6
15 14 13 12 12 10 9 8 8 7 7 7 6 6 6 5 5 5 4 4 3 3 2 2 1 0 -0 -1 -2 -1 -1 -1 -2 -2 -3 -3 -4 -4 -5 -6 -6 -6 -7
15 14 14 13 12 11 10 9 9 8 8 7 7 7 6 6 5 5 4 4 3 3 2 1 1 -0 -1 -2 -3 -4 -3 -3 -2 -2 -3 -3 -4 -5 -5 -6 -6 -6 -7
16 15 15 14 13 12 11 11 10 9 8 8 8 7 7 6 5 5 4 4 3 3 2 1 1 -0 -1 -2 -4 -5 -4 -4 -4 -4 -4 -4 -4 -5 -5 -6 -6 -6 -7
16 16 16 15 14 13 12 11 10 9 8 8 8 8 7 6 5 5 4 4 3 3 2 1 1 -0 -1 -2 -3 -4 -5 -4 -4 -5 -5 -4 -5 -5 -6 -6 -6 -7 -7
17 17 16 15 15 14 13 12 11 11 10 11 10 9 8 7 6 5 5 4 3 3 2 1 1 -0 -1 -2 -4 -4 -5 -6 -7 -6 -6 -5 -5 -6 -6 -6 -7 -7 -7
17 17 16 16 15 15 14 13 12 11 11 10 9 9 9 8 7 6 5 4 3 3 2 1 1 -0 -1 -1 -3 -4 -5 -6 -7 -8 -7 -6 -6 -6 -6 -6 -7 -7 -7
18 17 17 16 16 15 15 14 13 13 12 11 10 9 9 8 8 7 6 5 4 3 2 2 1 -0 -1 -1 -2 -4 -5 -6 -7 -7 -7 -7 -6 -6 -6 -7 -7 -7 -7
Wind_Speed
14 16 14 14 12 11 10 9 9 10 10 11 12 13 14 14 15 16 17 18 19 19 20 21 21 22 23 23 24 24 25 25 25 25 24 24 25 27 27 27 26 23 28
18 18 17 15 13 12 11 10 9 9 10 10 11 12 13 13 14 15 16 17 17 18 19 20 20 21 21 22 22 22 23 23 23 22 22 21 23 26 26 26 26 24 27
19 18 18 16 14 13 11 10 10 9 9 10 10 11 12 12 13 14 15 15 16 17 18 18 19 20 20 21 21 21 21 21 21 19 19 18 19 24 25 25 26 26 26
18 17 18 17 15 14 12 11 10 10 9 10 10 10 11 11 12 13 13 14 15 16 16 17 18 18 19 19 20 20 20 19 19 17 16 17 18 23 24 25 25 25 25
18 17 17 18 16 14 13 11 10 10 9 9 9 9 10 10 11 11 12 12 13 14 15 15 16 17 18 18 19 20 19 18 16 16 15 15 17 22 24 24 24 24 25
18 17 18 18 17 15 13 12 11 10 10 9 9 8 9 9 9 10 10 11 12 12 13 14 15 16 17 17 18 19 19 18 15 14 14 15 17 22 24 24 24 24 24
18 17 17 19 17 15 14 13 11 10 10 9 8 8 8 8 8 8 9 9 10 11 12 12 13 14 15 16 17 18 18 17 14 14 14 15 19 24 24 24 24 24 24
18 17 15 19 17 16 15 14 12 11 10 10 9 8 7 7 7 7 8 8 8 9 10 11 12 13 14 15 16 17 17 17 13 14 14 14 21 24 24 24 24 24 24
18 17 15 18 18 17 16 15 13 12 11 10 9 8 7 7 6 6 6 7 7 7 8 9 10 11 12 13 14 15 15 15 14 13 13 14 22 23 23 24 24 24 24
17 17 17 17 17 17 17 16 15 14 12 11 10 9 8 7 6 5 5 5 5 6 6 7 8 9 9 11 12 13 12 11 13 12 12 16 22 23 23 23 24 24 24
17 18 18 18 17 16 15 16 16 15 14 13 12 10 8 6 6 5 5 4 4 4 5 6 6 7 6 7 10 11 9 10 11 10 10 17 21 22 23 23 24 24 25
22 21 19 19 18 17 15 14 14 14 14 13 11 11 8 7 6 5 5 4 4 3 3 4 4 4 5 6 7 8 8 11 9 9 10 17 20 21 22 22 23 24 25
22 21 20 21 20 19 16 14 13 12 12 13 13 12 9 8 7 6 5 5 4 3 1 0 2 3 5 6 7 7 9 9 8 9 11 15 18 20 21 21 22 23 24
22 23 21 22 20 20 18 16 15 13 13 12 13 14 11 9 8 7 6 6 5 4 2 2 2 3 4 5 6 7 8 8 8 9 11 14 17 18 19 20 21 22 23
23 23 23 23 22 21 19 16 16 15 15 15 14 15 14 11 9 9 8 7 6 5 4 3 3 3 4 5 6 7 9 10 10 11 11 13 16 17 18 19 20 22 23
24 24 23 23 24 22 19 17 16 16 15 15 15 16 16 13 11 10 9 8 8 7 5 5 4 4 5 6 7 8 10 11 11 12 12 13 15 16 17 18 20 21 22
24 24 24 23 25 24 22 20 17 16 16 16 16 17 18 16 13 12 10 9 9 8 7 6 6 5 6 7 8 10 10 12 13 13 13 13 13 14 16 17 18 20 22
22 23 24 20 23 24 22 20 18 17 17 17 16 17 19 19 16 14 11 10 10 9 8 7 6 6 6 6 7 8 10 11 14 14 14 13 13 12 13 16 18 20 22
23 23 23 24 24 23 23 20 19 18 18 17 17 17 19 20 19 16 13 12 12 10 9 8 7 6 7 7 8 8 10 11 13 13 14 14 14 14 14 15 18 20 21
21 22 23 23 23 22 19 17 15 16 17 18 18 19 20 20 21 18 14 14 13 11 9 9 9 8 7 7 8 10 11 12 12 12 13 13 13 14 15 16 16 16 19
21 22 23 23 23 20 17 17 16 16 15 15 18 21 22 21 22 20 16 15 15 12 11 11 9 10 8 7 7 9 10 11 11 9 11 11 13 14 15 16 16 16 16
22 23 23 24 24 24 19 17 15 15 14 16 17 20 23 24 23 21 20 15 16 12 13 13 12 9 8 7 6 6 6 6 8 8 9 10 12 13 14 16 17 17 18
22 24 22 24 24 24 22 15 13 13 11 14 16 16 22 25 25 24 23 20 17 15 13 14 14 13 10 9 9 7 6 5 5 7 10 10 11 11 13 15 18 19 20
20 19 21 22 23 23 22 20 22 19 19 19 16 16 19 25 26 26 24 23 19 16 15 14 14 13 12 10 9 10 10 8 7 6 7 9 12 13 14 14 17 19 20
16 17 18 20 22 22 24 24 23 23 20 16 16 18 19 20 25 26 26 23 20 17 17 16 15 15 13 12 10 9 10 10 12 10 10 11 11 12 12 14 15 18 20
13 15 17 19 21 22 24 25 26 27 24 21 20 18 17 16 17 24 25 23 21 18 18 17 16 17 15 14 12 11 10 9 9 10 13 14 14 13 14 13 14 16 18
Wind_Direction
164 161 159 151 144 137 127 115 103 93 85 79 74 70 66 62 59 56 54 52 51 49 48 47 45 44 44 44 44 45 42 37 32 30 28 27 25 26 27 24 22 20 18
158 160 160 154 149 142 133 122 111 101 92 84 78 73 69 64 60 57 55 53 51 49 47 46 44 44 44 43 43 44 41 37 33 31 28 26 23 24 25 23 21 18 17
156 159 160 157 153 147 140 131 120 110 100 91 84 78 72 66 62 59 56 54 51 49 47 45 43 42 42 41 41 42 41 36 33 31 30 25 20 21 22 21 19 16 14
158 161 160 157 156 152 146 139 130 119 109 99 91 84 77 70 65 61 58 55 52 50 47 44 42 40 40 39 38 39 39 34 31 30 29 24 17 16 19 18 16 14 12
162 163 158 160 160 157 152 146 138 128 118 108 99 91 84 75 69 65 59 56 52 50 46 44 41 38 37 36 36 35 34 30 28 29 27 21 15 12 15 16 14 11 9
165 165 163 164 164 161 158 153 146 138 128 119 109 100 92 83 74 69 63 58 53 49 46 43 41 37 34 33 33 31 30 26 23 25 22 17 12 8 10 11 10 8 6
168 168 168 169 169 167 164 160 155 147 139 130 121 111 101 92 82 75 69 62 55 50 45 42 40 36 32 31 30 28 25 22 21 21 17 13 7 4 5 6 5 4 2
171 172 172 173 174 173 171 168 164 158 150 142 133 123 113 103 93 82 76 68 59 51 46 42 40 35 30 28 27 24 21 17 14 15 12 8 3 360 0 0 360 358 357
178 179 179 180 179 179 178 175 172 167 160 153 144 134 124 113 103 90 81 75 64 53 47 42 39 35 28 26 24 21 16 12 12 9 6 3 356 354 355 354 354 352 351
186 188 186 185 182 182 182 181 178 174 170 163 154 145 135 125 117 107 99 85 73 57 49 43 38 33 27 24 22 17 11 5 7 2 1 355 350 349 348 348 347 346 345
195 195 192 189 185 184 184 182 183 181 178 171 165 158 155 157 150 142 110 100 88 66 51 42 35 26 18 19 18 11 7 3 356 354 352 347 344 342 341 341 340 339 338
197 196 195 195 190 188 185 185 187 184 180 184 179 174 177 175 169 158 134 124 110 89 67 41 27 11 357 359 4 3 360 352 348 343 340 340 337 335 334 334 333 333 332
197 196 198 198 195 193 190 190 188 187 186 190 192 188 185 182 177 182 180 172 170 174 189 348 315 352 353 355 348 349 346 341 334 328 326 330 329 327 325 325 325 325 325
200 200 199 199 199 199 197 196 196 194 193 194 195 194 191 191 194 193 198 195 199 203 217 252 297 323 329 332 331 329 326 321 316 314 311 315 317 316 315 315 316 317 318
204 202 202 200 201 201 202 202 202 202 200 198 195 197 198 197 198 197 200 201 206 210 219 239 265 290 301 308 307 308 306 303 300 298 296 299 303 304 305 307 310 312 313
207 205 202 202 203 202 203 204 205 205 203 202 200 200 201 203 201 200 203 205 209 213 221 236 255 274 284 288 290 291 292 291 288 286 286 289 289 291 295 299 303 307 309
207 205 203 203 204 204 207 208 208 207 204 204 204 203 202 205 204 203 206 207 209 210 218 230 241 256 269 274 277 282 283 283 281 280 280 279 280 280 282 289 296 300 304
208 206 204 201 205 206 208 209 210 209 207 208 206 205 205 206 205 206 209 210 207 208 216 225 235 246 254 264 273 278 278 277 276 275 273 270 271 274 278 282 289 294 299
208 205 204 203 205 206 208 209 212 212 211 211 208 207 207 207 206 208 212 211 206 209 214 220 229 238 250 258 268 275 275 272 273 272 268 266 264 266 273 280 284 288 292
208 206 205 204 207 206 207 211 213 216 216 215 213 212 208 207 207 209 213 212 207 210 213 216 224 229 243 256 268 272 272 270 269 266 265 263 261 263 269 277 282 284 287
207 206 206 205 205 204 204 207 210 214 215 216 217 215 211 209 207 209 212 211 209 213 215 217 222 230 234 239 260 269 266 259 258 257 258 261 263 266 269 273 278 282 287
207 207 207 207 205 204 206 207 211 216 220 219 218 218 215 212 209 209 212 211 210 214 216 216 217 225 230 224 239 270 281 261 235 247 257 261 266 269 270 274 277 280 284
210 209 208 207 207 206 205 206 208 215 222 218 218 218 216 214 212 211 212 213 211 212 214 213 212 218 225 222 222 236 258 275 289 258 257 261 265 268 272 277 277 279 282
216 213 213 211 210 208 205 208 207 210 217 220 219 219 217 215 214 213 212 212 213 212 215 213 212 216 222 229 223 226 236 253 265 284 262 259 263 268 271 275 278 279 280
219 215 214 215 214 211 209 211 214 222 227 228 223 222 220 215 215 213 213 212 213 213 214 213 211 213 216 224 226 226 233 242 240 249 274 281 276 272 274 277 279 280 281
221 215 214 215 217 213 212 214 218 223 226 226 224 222 219 217 215 214 212 212 212 212 212 212 212 214 217 221 227 230 232 236 241 246 263 276 283 283 283 280 278 278 278
Height
1585 1587 1589 1591 1592 1593 1593 1593 1593 1593 1592 1592 1591 1590 1588 1587 1586 1584 1583 1582 1580 1578 1576 1574 1572 1570 1568 1565 1563 1561 1559 1558 1557 1556 1555 1554 1553 1552 1551 1550 1549 1548 1548
1583 1586 1588 1590 1591 1592 1592 1592 1592 1592 1592 1591 1591 1590 1588 1587 1586 1585 1583 1582 1580 1578 1577 1575 1573 1571 1568 1566 1563 1561 1559 1557 1556 1555 1554 1553 1552 1551 1550 1549 1548 1548 1547
1581 1585 1587 1588 1590 1591 1591 1592 1592 1592 1591 1591 1590 1589 1588 1587 1586 1585 1583 1582 1580 1579 1577 1575 1573 1571 1569 1566 1564 1561 1559 1557 1555 1554 1553 1552 1551 1550 1549 1548 1547 1547 1546
1580 1583 1586 1587 1588 1589 1590 1591 1591 1591 1590 1590 1589 1588 1587 1586 1585 1584 1583 1582 1580 1578 1577 1575 1573 1571 1569 1566 1564 1561 1559 1557 1555 1554 1552 1551 1550 1550 1549 1547 1546 1545 1544
1579 1582 1584 1585 1587 1588 1589 1590 1590 1590 1590 1589 1589 1588 1587 1586 1585 1584 1583 1581 1580 1578 1576 1574 1573 1571 1569 1566 1564 1561 1559 1557 1555 1554 1552 1550 1549 1549 1549 1547 1545 1543 1542
1577 1580 1582 1584 1586 1587 1588 1589 1589 1589 1589 1589 1588 1587 1586 1585 1584 1583 1582 1581 1579 1578 1576 1574 1572 1570 1568 1566 1564 1562 1559 1557 1556 1554 1552 1551 1550 1549 1548 1546 1544 1543 1541
1576 1579 1581 1582 1584 1585 1586 1587 1588 1588 1588 1587 1587 1586 1585 1584 1583 1582 1581 1580 1578 1577 1576 1574 1572 1570 1568 1566 1564 1562 1560 1558 1556 1554 1553 1551 1550 1548 1547 1545 1543 1542 1540
1574 1576 1579 1580 1582 1584 1585 1586 1586 1586 1586 1586 1586 1585 1584 1583 1582 1581 1580 1579 1578 1576 1574 1573 1571 1569 1567 1565 1563 1561 1560 1558 1556 1554 1552 1551 1549 1547 1546 1544 1542 1540 1539
1572 1574 1576 1579 1580 1581 1583 1583 1584 1585 1585 1584 1584 1583 1583 1582 1581 1580 1579 1578 1576 1575 1573 1572 1570 1568 1567 1565 1563 1561 1559 1557 1556 1554 1552 1550 1548 1546 1544 1543 1541 1539 1537
1568 1571 1573 1576 1578 1579 1580 1581 1582 1582 1582 1582 1582 1582 1581 1580 1579 1578 1577 1576 1575 1574 1572 1570 1569 1567 1565 1563 1561 1559 1558 1556 1554 1552 1551 1549 1546 1544 1543 1541 1539 1537 1535
1564 1566 1569 1572 1574 1576 1577 1578 1579 1579 1580 1580 1579 1579 1579 1578 1577 1577 1575 1574 1573 1572 1570 1569 1567 1566 1564 1562 1560 1558 1556 1554 1553 1551 1548 1546 1544 1542 1540 1538 1537 1535 1533
1558 1561 1564 1567 1569 1572 1573 1575 1576 1576 1576 1577 1577 1576 1576 1576 1575 1574 1573 1572 1571 1570 1568 1567 1566 1564 1562 1561 1559 1557 1555 1553 1550 1548 1546 1544 1541 1539 1537 1535 1534 1532 1530
1554 1556 1559 1561 1564 1567 1568 1570 1571 1572 1573 1573 1573 1573 1573 1573 1572 1571 1570 1570 1569 1567 1566 1565 1564 1562 1561 1559 1557 1555 1552 1550 1548 1546 1543 1540 1538 1536 1534 1532 1531 1529 1527
1549 1551 1554 1556 1559 1561 1563 1565 1566 1567 1568 1569 1569 1570 1570 1569 1569 1568 1567 1567 1566 1565 1563 1562 1561 1560 1558 1556 1554 1552 1549 1547 1544 1542 1539 1537 1534 1531 1529 1528 1527 1525 1523
1544 1546 1548 1550 1553 1555 1558 1559 1561 1562 1564 1564 1565 1565 1565 1565 1565 1565 1564 1563 1562 1561 1560 1559 1558 1556 1555 1553 1551 1548 1546 1543 1541 1538 1535 1532 1529 1527 1524 1523 1522 1520 1518
1537 1540 1542 1544 1547 1549 1551 1554 1556 1557 1558 1559 1560 1560 1561 1561 1561 1560 1560 1559 1558 1558 1557 1555 1554 1553 1551 1549 1547 1544 1542 1539 1536 1533 1530 1527 1524 1522 1519 1517 1516 1514 1513
1532 1534 1536 1538 1541 1543 1545 1548 1550 1551 1553 1553 1554 1555 1555 1556 1556 1556 1555 1555 1554 1553 1552 1551 1550 1548 1547 1545 1543 1540 1538 1535 1532 1529 1526 1523 1520 1517 1514 1512 1510 1508 1507
1525 1527 1530 1532 1534 1536 1539 1542 1543 1545 1546 1547 1548 1549 1549 1550 1550 1550 1550 1549 1549 1548 1547 1546 1545 1543 1542 1540 1538 1536 1533 1530 1527 1524 1521 1518 1515 1512 1509 1506 1504 1502 1500
1518 1520 1523 1525 1528 1530 1533 1535 1537 1538 1539 1540 1541 1542 1543 1543 1544 1544 1544 1544 1543 1542 1542 1541 1540 1538 1536 1535 1533 1530 1528 1525 1522 1519 1516 1513 1510 1507 1504 1501 1498 1495 1493
1510 1513 1516 1518 1521 1524 1526 1527 1529 1530 1531 1532 1532 1534 1535 1536 1537 1537 1537 1537 1537 1536 1535 1535 1534 1532 1531 1529 1527 1524 1522 1520 1517 1514 1511 1509 1505 1502 1499 1496 1493 1489 1486
1502 1505 1507 1510 1513 1515 1516 1517 1518 1519 1522 1523 1524 1526 1527 1528 1529 1530 1530 1530 1529 1529 1529 1528 1527 1526 1524 1523 1521 1518 1516 1513 1511 1508 1506 1503 1500 1497 1494 1490 1487 1484 1480
1495 1497 1500 1502 1505 1506 1507 1509 1511 1513 1514 1515 1516 1517 1518 1519 1520 1521 1522 1522 1522 1522 1521 1521 1520 1520 1518 1517 1516 1514 1512 1510 1505 1503 1500 1497 1495 1492 1488 1485 1482 1478 1474
1487 1490 1492 1495 1497 1499 1501 1503 1503 1504 1504 1505 1505 1506 1508 1510 1511 1512 1513 1513 1513 1513 1513 1513 1513 1512 1512 1510 1509 1509 1507 1504 1501 1497 1495 1492 1489 1486 1482 1479 1475 1472 1468
1482 1484 1486 1488 1490 1492 1493 1493 1493 1493 1492 1493 1496 1497 1498 1499 1501 1502 1503 1504 1504 1504 1504 1504 1504 1504 1504 1503 1502 1500 1500 1498 1496 1491 1489 1486 1483 1480 1476 1473 1469 1465 1461
1477 1478 1480 1481 1482 1483 1484 1484 1484 1484 1485 1487 1487 1486 1487 1488 1489 1490 1492 1493 1493 1494 1494 1495 1495 1495 1495 1495 1494 1493 1492 1491 1489 1486 1481 1480 1477 1474 1471 1467 1463 1458 1454
1472 1472 1473 1473 1474 1475 1475 1475 1475 1475 1476 1477 1476 1475 1476 1476 1476 1478 1480 1481 1482 1483 1484 1485 1486 1486 1486 1486 1486 1485 1484 1483 1482 1480 1475 1472 1469 1466 1464 1460 1455 1451 1447